TimeCST,TemperatureF,Dew PointF,Humidity,Sea Level PressureIn,VisibilityMPH,Wind Direction,Wind SpeedMPH,Gust SpeedMPH,PrecipitationIn,Events,Conditions,WindDirDegrees,DateUTC
12:15 AM,43.0,32.0,65,30.18,10.0,Calm,Calm,-,N/A,,Overcast,0,2012-11-05 06:15:00
12:35 AM,42.8,32.0,66,30.18,10.0,Calm,Calm,-,N/A,,Mostly Cloudy,0,2012-11-05 06:35:00
12:55 AM,42.1,32.0,67,30.18,10.0,Calm,Calm,-,N/A,,Scattered Clouds,0,2012-11-05 06:55:00
1:15 AM,42.8,32.0,66,30.18,10.0,Calm,Calm,-,N/A,,Mostly Cloudy,0,2012-11-05 07:15:00
1:35 AM,41.9,32.2,68,30.18,10.0,Calm,Calm,-,N/A,,Overcast,0,2012-11-05 07:35:00
1:55 AM,42.3,32.0,67,30.17,10.0,Calm,Calm,-,N/A,,Overcast,0,2012-11-05 07:55:00
2:15 AM,42.3,31.8,67,30.17,10.0,Calm,Calm,-,N/A,,Overcast,0,2012-11-05 08:15:00
2:35 AM,42.4,31.1,64,30.16,10.0,East,3.5,-,N/A,,Overcast,90,2012-11-05 08:35:00
2:55 AM,42.3,31.1,65,30.16,10.0,Calm,Calm,-,N/A,,Overcast,0,2012-11-05 08:55:00
3:15 AM,42.1,31.1,65,30.15,10.0,Calm,Calm,-,N/A,,Overcast,0,2012-11-05 09:15:00
3:35 AM,41.0,32.0,70,30.15,10.0,East,3.5,-,N/A,,Mostly Cloudy,90,2012-11-05 09:35:00
3:55 AM,41.5,31.8,68,30.15,10.0,Calm,Calm,-,N/A,,Overcast,0,2012-11-05 09:55:00
4:15 AM,41.0,32.0,70,30.15,10.0,Calm,Calm,-,N/A,,Light Drizzle,0,2012-11-05 10:15:00
4:35 AM,41.4,32.0,69,30.15,10.0,Calm,Calm,-,N/A,,Overcast,0,2012-11-05 10:35:00
4:55 AM,41.2,32.0,70,30.15,10.0,East,3.5,-,N/A,,Overcast,100,2012-11-05 10:55:00
5:15 AM,41.0,32.0,70,30.14,10.0,Calm,Calm,-,N/A,,Overcast,0,2012-11-05 11:15:00
5:35 AM,41.0,32.0,70,30.14,10.0,ESE,4.6,-,N/A,,Overcast,110,2012-11-05 11:35:00
5:55 AM,41.4,32.0,69,30.14,10.0,ESE,3.5,-,N/A,,Overcast,110,2012-11-05 11:55:00
6:15 AM,41.0,32.0,70,30.14,10.0,ESE,4.6,-,N/A,,Light Drizzle,110,2012-11-05 12:15:00
6:35 AM,41.0,32.0,70,30.14,10.0,ESE,3.5,-,N/A,,Overcast,110,2012-11-05 12:35:00
6:55 AM,41.5,32.4,70,30.14,10.0,Calm,Calm,-,N/A,,Overcast,0,2012-11-05 12:55:00
7:15 AM,41.5,32.2,69,30.13,10.0,ESE,3.5,-,N/A,Rain,Light Rain,110,2012-11-05 13:15:00
7:35 AM,41.5,32.2,69,30.13,10.0,East,4.6,-,N/A,,Light Drizzle,100,2012-11-05 13:35:00
7:55 AM,41.5,32.2,69,30.13,10.0,ESE,5.8,-,N/A,Rain,Light Rain,110,2012-11-05 13:55:00
8:15 AM,41.9,32.0,68,30.13,10.0,ESE,5.8,-,N/A,,Overcast,110,2012-11-05 14:15:00
8:35 AM,42.3,32.0,67,30.14,10.0,SE,4.6,-,N/A,,Overcast,140,2012-11-05 14:35:00
8:55 AM,42.8,31.5,64,30.14,10.0,SE,5.8,-,N/A,,Overcast,140,2012-11-05 14:55:00
9:15 AM,42.8,32.0,66,30.15,10.0,SE,5.8,-,N/A,,Overcast,140,2012-11-05 15:15:00
9:35 AM,43.7,32.0,63,30.15,10.0,SE,4.6,-,N/A,,Light Drizzle,140,2012-11-05 15:35:00
9:55 AM,43.7,32.0,63,30.15,10.0,SSE,3.5,-,N/A,,Overcast,160,2012-11-05 15:55:00
10:15 AM,43.7,32.0,63,30.15,10.0,SSE,4.6,-,N/A,,Light Drizzle,160,2012-11-05 16:15:00
10:35 AM,44.1,32.0,63,30.14,10.0,SSE,4.6,-,N/A,,Overcast,160,2012-11-05 16:35:00
10:55 AM,44.1,32.4,63,30.14,10.0,SE,4.6,-,N/A,,Light Drizzle,140,2012-11-05 16:55:00
11:15 AM,44.6,32.0,61,30.13,10.0,ESE,4.6,-,N/A,,Overcast,120,2012-11-05 17:15:00
11:35 AM,45.0,32.0,60,30.13,10.0,SE,9.2,-,N/A,,Overcast,130,2012-11-05 17:35:00
11:55 AM,45.5,32.0,59,30.13,10.0,SE,6.9,-,N/A,,Overcast,140,2012-11-05 17:55:00
12:15 PM,45.1,32.2,60,30.12,10.0,East,5.8,-,N/A,,Overcast,100,2012-11-05 18:15:00
12:35 PM,45.5,32.9,61,30.11,10.0,SE,5.8,-,N/A,,Overcast,130,2012-11-05 18:35:00
12:55 PM,45.0,32.9,63,30.11,10.0,SSE,4.6,-,N/A,,Overcast,150,2012-11-05 18:55:00
1:15 PM,45.0,33.1,63,30.10,10.0,SE,4.6,-,N/A,,Overcast,130,2012-11-05 19:15:00
1:35 PM,45.1,32.7,62,30.10,10.0,East,5.8,-,N/A,Rain,Light Rain,90,2012-11-05 19:35:00
1:55 PM,44.6,32.2,62,30.09,10.0,East,4.6,-,N/A,Rain,Light Rain,80,2012-11-05 19:55:00
2:15 PM,44.6,33.8,66,30.10,10.0,ENE,3.5,-,N/A,Rain,Light Rain,70,2012-11-05 20:15:00
2:35 PM,43.7,34.0,69,30.10,10.0,Calm,Calm,-,N/A,Rain,Light Rain,0,2012-11-05 20:35:00
2:55 PM,43.7,34.2,69,30.11,10.0,Calm,Calm,-,N/A,Rain,Light Rain,0,2012-11-05 20:55:00
3:15 PM,43.9,34.9,71,30.11,10.0,Calm,Calm,-,N/A,Rain,Light Rain,0,2012-11-05 21:15:00
3:35 PM,43.9,34.9,71,30.11,10.0,Calm,Calm,-,N/A,,Overcast,0,2012-11-05 21:35:00
3:55 PM,43.2,33.8,70,30.11,10.0,ENE,3.5,-,N/A,,Overcast,60,2012-11-05 21:55:00
4:15 PM,43.2,33.6,69,30.10,10.0,ENE,4.6,-,N/A,,Overcast,70,2012-11-05 22:15:00
4:35 PM,42.8,34.5,73,30.10,10.0,NE,3.5,-,N/A,,Overcast,50,2012-11-05 22:35:00
4:55 PM,42.3,34.3,74,30.11,10.0,NE,4.6,-,N/A,,Overcast,50,2012-11-05 22:55:00
5:15 PM,42.1,33.8,72,30.11,10.0,ENE,4.6,-,N/A,,Overcast,60,2012-11-05 23:15:00
5:35 PM,41.9,33.8,73,30.11,10.0,ENE,3.5,-,N/A,,Light Drizzle,70,2012-11-05 23:35:00
5:55 PM,41.9,33.8,73,30.12,10.0,ENE,3.5,-,N/A,,Overcast,60,2012-11-05 23:55:00
6:15 PM,41.9,33.8,73,30.12,10.0,ENE,3.5,-,N/A,,Overcast,60,2012-11-06 00:15:00
6:35 PM,41.9,34.0,73,30.11,10.0,Calm,Calm,-,N/A,,Overcast,0,2012-11-06 00:35:00
6:55 PM,41.5,34.2,75,30.11,10.0,Calm,Calm,-,N/A,,Overcast,0,2012-11-06 00:55:00
7:15 PM,41.5,33.8,74,30.11,10.0,Calm,Calm,-,N/A,,Overcast,0,2012-11-06 01:15:00
7:35 PM,42.8,33.8,70,30.12,10.0,Calm,Calm,-,N/A,,Light Drizzle,0,2012-11-06 01:35:00
7:55 PM,41.9,34.0,73,30.12,10.0,Calm,Calm,-,N/A,Rain,Light Rain,0,2012-11-06 01:55:00
8:15 PM,41.9,33.4,72,30.12,10.0,Calm,Calm,-,N/A,,Light Drizzle,0,2012-11-06 02:15:00
8:35 PM,41.9,33.3,71,30.12,10.0,Calm,Calm,-,N/A,Rain,Light Rain,0,2012-11-06 02:35:00
8:55 PM,41.9,33.3,71,30.12,10.0,Calm,Calm,-,N/A,Rain,Light Rain,0,2012-11-06 02:55:00
9:15 PM,41.9,33.8,73,30.12,10.0,Calm,Calm,-,N/A,,Overcast,0,2012-11-06 03:15:00
9:35 PM,41.9,34.0,73,30.12,7.0,Calm,Calm,-,N/A,,Overcast,0,2012-11-06 03:35:00
9:55 PM,42.1,34.5,75,30.11,7.0,Calm,Calm,-,N/A,,Overcast,0,2012-11-06 03:55:00
10:15 PM,42.3,34.0,72,30.10,7.0,Calm,Calm,-,N/A,,Overcast,0,2012-11-06 04:15:00
10:35 PM,41.9,34.2,74,30.09,7.0,Calm,Calm,-,N/A,,Overcast,0,2012-11-06 04:35:00
10:55 PM,42.1,34.7,75,30.09,7.0,Calm,Calm,-,N/A,,Overcast,0,2012-11-06 04:55:00
11:15 PM,41.9,34.3,75,30.09,7.0,Calm,Calm,-,N/A,,Overcast,0,2012-11-06 05:15:00
11:35 PM,42.1,33.6,72,30.09,7.0,Calm,Calm,-,N/A,,Overcast,0,2012-11-06 05:35:00
11:55 PM,42.1,33.4,71,30.08,10.0,Calm,Calm,-,N/A,,Overcast,0,2012-11-06 05:55:00